map of KBR home
Great Circle Mapper logo
KBR - Airport
Location
City:  Kota Bharu, Kelantan, Malaysia
Name:Sultan Ismail Petra
ICAO:WMKC
IATA:KBR

Details
Type:Airport (Aerodrome, Airfield)
Use:Public/Civil
Latitude:610'01"N (6.166850)
Longitude:10217'35"E (102.293014)
Datum:WGS 1984
Elevation:16 ft (5 m)
Variation:0.12W (WMM2015 magnetic declination)
0.00 annual change
Runways:1
Longest:6982 × 150 ft (2128 × 45.5 m), paved

Time
Time Zone:UTC+8
Local Time:

Weather
METAR:WMKC 031900Z 17003KT 9999 SCT020 BKN280 29/26 Q1009

Related Locations
Nearby:
Farthest:CHH: 12440 mi / 20021 km
Chachapoyas [Chachapoyas Airport], AMA, PE

Find:

   beyond  
but within

Other Information
Maps:
NOTAMs:
Links:
Sources:

  
flag of Malaysia
flag of Kelantan
  

Sectional Chart

Flight Planning
at skyvector.com

Satellite Image

Google Maps Satellite view

 

Copyright © 2004-2016 Karl L. Swartz. All rights reserved.
The Great Circle Mapper name and logo are trademarks of the Great Circle Mapper.
All other trademarks mentioned herein belong to their respective owners.
Please see credits for attibutions and further copyright information.

  Follow gcmap on Facebook Follow gcmap on Twitter Follow gcmap on Google+ GCmap on LinkedIn

hCard Microformat

Geo Microformat